Overview Statistics Trail Chart Weather Telemetry Raw packets
 

This is the latest recevied weather packets stored in our database for station/object N5ATR. If no packets are shown the sender has not sent any weather packets the latest 10 day(s).

<< 99 100 101 102 103 104 105 >>
Time Temp. Humidity Pressure Rain* Wind** Luminosity Snow
1787946233 30.56° C 28% 1026.1 hPa 0 mm - 787 W/m² -
1787945932 31.11° C 27% 1026.2 hPa 0 mm - 759 W/m² -
1787945627 31.11° C 29% 1026.6 hPa 0 mm - 758 W/m² -
1787945322 31.11° C 28% 1026.5 hPa 0 mm - 752 W/m² -
1787945017 31.11° C 28% 1026.5 hPa 0 mm - 766 W/m² -
1787944715 30.56° C 28% 1026.6 hPa 0 mm - 757 W/m² -
1787944411 30.56° C 28% 1026.7 hPa 0 mm - 732 W/m² -
1787944105 30° C 29% 1026.8 hPa 0 mm - 673 W/m² -
1787943801 30.56° C 29% 1027.1 hPa 0 mm - 719 W/m² -
1787943496 30° C 30% 1026.8 hPa 0 mm - 731 W/m² -
1787943191 30° C 29% 1027.3 hPa 0 mm - 727 W/m² -
1787942890 30.56° C 29% 1027.2 hPa 0 mm - 726 W/m² -
1787942587 30° C 29% 1027.4 hPa 0 mm - 727 W/m² -
1787942286 30.56° C 29% 1027.4 hPa 0 mm - 720 W/m² -
1787941981 30.56° C 28% 1027.6 hPa 0 mm - 713 W/m² -
1787941681 30.56° C 29% 1027.4 hPa 0 mm - 711 W/m² -
1787941379 30° C 30% 1027.7 hPa 0 mm - 708 W/m² -
1787941074 30° C 30% 1027.6 hPa 0 mm - 701 W/m² -
1787940774 30° C 30% 1027.4 hPa 0 mm - 701 W/m² -
1787940472 29.44° C 30% 1027.7 hPa 0 mm - 695 W/m² -
1787940167 30° C 31% 1027.9 hPa 0 mm - 689 W/m² -
1787939866 30° C 31% 1027.8 hPa 0 mm - 682 W/m² -
1787939561 29.44° C 32% 1027.8 hPa 0 mm - 678 W/m² -
1787939255 30° C 31% 1027.9 hPa 0 mm - 675 W/m² -
1787938950 28.89° C 32% 1027.9 hPa 0 mm - 668 W/m² -

* Rain latest hour (hover to see other rain measurements)
** Current wind speed in m/s (hover to see current wind gust speed)